Regional Weather Roundup
Issued by NWS Upton, NY

Current Version | Previous Version | Text Only | Print | Product List | Glossary Off
Versions: 1 2 3 4 5 6 7 8 9 10 11 12 13 14 15 16 17 18 19 20 21 22 23 24 25 26 27 28 29 30 31 32 33 34 35 36 37 38 39 40 41 42 43 44 45 46 47 48 49 50
000 ASUS41 KOKX 150405 RWROKX REGIONAL WEATHER ROUNDUP NATIONAL WEATHER SERVICE NEW YORK NY 1200 AM EDT MON SEP 15 2014 NOTE: "FAIR" INDICATES FEW OR NO CLOUDS BELOW 12,000 FEET WITH NO SIGNIFICANT WEATHER AND/OR OBSTRUCTIONS TO VISIBILITY. NYZ071-072-176-178-NJZ106-104-150500- NEW YORK CITY METRO AREA CITY SKY/WX TMP DP RH WIND PRES REMARKS CENTRAL PARK CLEAR 60 48 64 NE6 30.21F LAGUARDIA APRT PTCLDY 63 49 60 CALM 30.18F KENNEDY INTL PTCLDY 62 52 69 SW9 30.20S NEWARK/LIBERTY CLEAR 60 49 66 W5 30.19S BRNX BOT. GARD N/A 55 45 67 CALM 30.20S TETERBORO CLEAR 57 48 72 N6 30.18S $$ NYZ177-179-078>081-150500- LONG ISLAND NEW YORK CITY SKY/WX TMP DP RH WIND PRES REMARKS FARMINGDALE CLEAR 56 50 80 N6 30.19F ISLIP PTCLDY 55 50 83 CALM 30.18F SHIRLEY CLEAR 50 47 89 CALM 30.20S WESTHAMPTON CLEAR 44 42 93 CALM 30.21S MONTAUK POINT N/A 53 48 83 CALM 30.20S $$ NYZ052-065-067-150500- HUDSON VALLEY CITY SKY/WX TMP DP RH WIND PRES REMARKS WHITE PLAINS CLEAR 51 45 79 NW6 30.19F NEWBURGH CLEAR 48 46 93 CALM 30.23S MONTGOMERY CLEAR 46 44 93 CALM 30.22S POUGHKEEPSIE CLEAR 46 43 89 NE3 30.22S ALBANY PTCLDY 47 44 90 CALM 30.24S $$ NJZ001-105-106-008-010-013-015-019>022-104-150500- NEW JERSEY CITY SKY/WX TMP DP RH WIND PRES REMARKS NEWARK/LIBERTY CLEAR 60 49 66 W5 30.19S TETERBORO CLEAR 57 48 72 N6 30.18S CALDWELL CLEAR 52 46 80 CALM 30.20F MORRISTOWN N/A 46 45 93 CALM 30.20F FOG SOMERVILLE CLEAR 49 46 90 CALM 30.18F LINDEN FAIR 61 52 73 NW5 30.21S SUSSEX CLEAR 48 45 89 CALM 30.22S ANDOVER N/A 48 47 96 CALM 30.22S TRENTON CLEAR 51 48 89 SW3 30.20S MILLVILLE CLEAR 50 48 93 CALM 30.22R ATLANTIC CITY CLEAR 53 51 93 CALM 30.21S WRIGHTSTOWN CLEAR 52 50 92 SW3 30.18F TOMS RIVER CLEAR 50 46 87 CALM 30.20F BELMAR CLEAR 55 48 76 W5 30.19F $$ PAZ047>061-062-071-150500- EASTERN PENNSYLVANIA CITY SKY/WX TMP DP RH WIND PRES REMARKS PHILADELPHIA CLEAR 58 48 69 W6 30.22R ALLENTOWN CLEAR 50 47 89 CALM 30.21S SCRANTON CLEAR 46 43 89 E7 30.22F $$ CTZ002-004>006-009-010-012-RIZ004-006-007-MAZ004-011-015-150500- SOUTHERN NEW ENGLAND IN CT CITY SKY/WX TMP DP RH WIND PRES REMARKS BRADLEY INTL PTCLDY 51 45 79 N7 30.21S HARTFORD CLEAR 53 46 77 VRB3 30.21S DANBURY CLEAR 46 44 93 SW5 30.22F WTRBRY/OXFORD CLEAR 46 41 81 NE5 30.22S BRIDGEPORT CLEAR 54 44 69 NW5 30.20S MERIDEN CLEAR 48 45 89 CALM 30.21S NEW HAVEN CLEAR 53 46 77 N5 30.20S CHESTER FAIR 54 48 82 N6 30.21S GROTON MOCLDY 51 50 96 N3 30.19S WILLIMANTIC CLEAR 48 46 93 N3 30.22R IN RI CITY SKY/WX TMP DP RH WIND PRES REMARKS PROVIDENCE PTCLDY 53 49 86 N7 30.20S BLOCK ISLAND PTCLDY 55 46 71 CALM 30.19S WESTERLY CLEAR 50 48 93 CALM 30.20S IN MA CITY SKY/WX TMP DP RH WIND PRES REMARKS BOSTON PTCLDY 54 43 66 NW8 30.22R WORCESTER PTCLDY 49 42 77 NE6 30.22S WESTFIELD CLEAR 46 44 93 N3 30.22S PROVINCETOWN MOCLDY 45 41 87 CALM 30.20F NANTUCKET PTCLDY 49 45 86 CALM 30.19F $$ ANZ330-335-338-340-345-350-353-355-150500- COASTAL MARINE OBSERVATIONS STATION/POSITION TIME SKY/WX TEMP WIND PRES VSBY WAVE AIR SEA DIR/SP/G HT/PER (UTC) (F) (DEG/KT/KT) (MB) (MI) (FT/S) NY HARB ENTRANCE NOT AVBL 4S FIRE IS NOT AVBL 23SW MTP 0400 N/A 1/ 7 HUDSON CANYON 0400 62 73 280/ 4/ 4 1022.2 2/ 6 EXECUTION ROCKS 0400 63 72 30/ 10/ 12 N/A WESTERN LI SOUND 0400 62 20/ 8/ 10 N/A 0 CENTRAL LI SOUND 0300 62 71 340/ 10/ 14 N/A 1/ 2 EASTERN LI SOUND 0300 62 68 30/ 6/ 8 N/A ROBBINS REEF 0400 62 280/ 10/ 11 1021.0 $$ >>>>>>>>>>>>>>>>>>>>>>>>>>>> KEY <<<<<<<<<<<<<<<<<<<<<<<<<<< > < > SKY/WX - SKY CONDITION/PRESENT WEATHER < > TMP - TEMPERATURE IN FAHRENHEIT < > DP - DEWPOINT IN FAHRENHEIT < > RH - RELATIVE HUMIDITY IN PERCENT < > WIND - DIRECTION AND SPEED IN MPH < > PRES - MEAN SEA LEVEL PRESSURE IN INCHES OF HG < > WCI - WIND CHILL INDEX < > VSB - VISIBILITY IN MILES < > HX - HEAT INDEX < > TC - TEMPERATURE IN CELSIUS < > VRB - VARIABLE WIND DIRECTION < > < >>>>>>>>>>>>>>>>>>>>>>>>>>>> KEY <<<<<<<<<<<<<<<<<<<<<<<<<<<

USA.gov is the U.S. government's official web portal to all federal, state and local government web resources and services.